Home   Weather   Concord   Past weeks

Flag for USA Past Weather in Concord, California, USA — Yesterday and Last 2 Weeks

Now
72 °F

Sunny.


Feels Like: 76 °F
Forecast: 53 / 75 °F
Wind: 9 mph from West

Location: Buchanan Field

Current Time: Oct 1, 2016 at 1:46:40 PM

Latest Report: Oct 1, 2016 at 12:53 PM


Visibility: 10 mi

Pressure: 30.06 "Hg

Humidity: 28%

Dew Point: 37 °F

Location of ConcordLocation

Past Weather in Concord — Graph

°F

Concord Temperature Yesterday

Maximum temperature yesterday: 72 °F (at 1:53 PM)
Minimum temperature yesterday: 54 °F (at 4:53 AM)
Average temperature yesterday: 61 °F

High & Low Weather Summary for the Past Weeks

 TemperatureHumidityPressure
High99 °F (Sep 18, 4:53 PM)84% (Sep 17, 2:53 AM)30.11 "Hg (Sep 17, 2:53 AM)
Low53 °F (Sep 23, 5:53 AM)7% (Sep 26, 5:53 PM)29.74 "Hg (Sep 27, 5:53 PM)
Average71 °F45%29.93 "Hg
* Reported Sep 16 11:53 AM — Oct 1 11:53 AM, Concord, Weather by CustomWeather, © 2016

Note: Actual official high and low records may vary slightly from our data, if they occured in-between our weather recording intervals... More about our weather records

Advertising

Concord Weather History for the Previous 24 Hours

Scroll right to see more
 ConditionsComfort  
Time TempWeatherWind HumidityBarometerVisibility
11:53 AM
Sat, Oct 1
70 °FSunny.6 mph32%30.08 "Hg10 mi
10:53 AM66 °FSunny.7 mph43%30.09 "Hg10 mi
9:53 AM63 °FSunny.8 mph50%30.11 "Hg10 mi
8:53 AM59 °FSunny.6 mph58%30.10 "Hg10 mi
7:53 AM54 °FSunny.6 mph69%30.10 "Hg10 mi
6:53 AM55 °FClear.5 mph69%30.09 "Hg10 mi
5:53 AM54 °FClear.6 mph72%30.07 "Hg10 mi
4:53 AM54 °FClear.9 mph72%30.07 "Hg10 mi
3:53 AM55 °FClear.8 mph69%30.07 "Hg10 mi
2:53 AM56 °FClear.9 mph70%30.07 "Hg10 mi
1:53 AM56 °FClear.6 mph70%30.07 "Hg10 mi
12:53 AM57 °FClear.8 mph67%30.06 "Hg10 mi
11:53 PM
Fri, Sep 30
58 °FClear.9 mph65%30.05 "Hg10 mi
10:53 PM59 °FClear.10 mph62%30.05 "Hg10 mi
9:53 PM60 °FClear.9 mph60%30.03 "Hg10 mi
8:53 PM61 °FClear.8 mph58%30.02 "Hg10 mi
7:53 PM62 °FClear.8 mph54%30.01 "Hg10 mi
6:53 PM63 °FClear.10 mph52%30.01 "Hg10 mi
5:53 PM66 °FSunny.13 mph47%30.01 "Hg10 mi
4:53 PM68 °FSunny.18 mph39%30.00 "Hg10 mi
3:53 PM70 °FSunny.15 mph37%30.01 "Hg10 mi
2:53 PM72 °FSunny.15 mph29%30.02 "Hg10 mi
1:53 PM72 °FSunny.15 mph29%30.03 "Hg10 mi
Weather by CustomWeather, © 2016

See weather overviewHow to use our weather pages